Miscellaneous Local Product
Issued by NWS North Platte, NE

Home | Current Version | Previous Version | Text Only | Print | Product List | Glossary On
Versions: 1 2 3 4 5 6 7 8 9 10 11 12 13 14 15 16 17 18 19 20 21 22 23 24 25 26 27 28 29 30 31 32 33 34 35 36 37 38 39 40 41 42 43 44 45 46 47 48 49 50
000
AXUS43 KLBF 241310
MISLBF


WESTERN AND NORTH CENTRAL NEBRASKA HOURLY WEATHER ROUNDUP
NATIONAL WEATHER SERVICE NORTH PLATTE NE
800 AM CDT WED MAY 24 2017

NOTE: "FAIR" INDICATES FEW OR NO CLOUDS BELOW 12,000 FEET WITH NO
SIGNIFICANT WEATHER AND/OR OBSTRUCTIONS TO VISIBILITY.

NOTE: STATIONS NOT REPORTING VARIABLES SUCH AS SKY/WEATHER OR
PRESSURE ARE PROVIDED BY RAWS AND APRS NETWORKS AND ARE NOT UNDER
NATIONAL WEATHER SERVICE QUALITY CONTROL.

...OBSERVATIONS IN AND NEAR THE EASTERN PANHANDLE OF NEBRASKA...

CITY           SKY/WX    TMP DP  RH WIND       PRES   REMARKS
PINE RIDGE     SUNNY     47  39  74 S7        29.79F
GORDON         FAIR      42  37  85 S6        29.81F
CHADRON        SUNNY     48  39  71 S8        29.77F
ALLIANCE       SUNNY     43  40  89 S9        29.81F
SIDNEY         SUNNY     42  39  89 S6        29.84F
CRESCENT LAKE    N/A     45  39  79 S6          N/A
$$

...OBSERVATIONS IN NORTHERN NEBRASKA AND FAR SOUTHERN SOUTH DAKOTA...

CITY           SKY/WX    TMP DP  RH WIND       PRES   REMARKS
WINNER         FAIR      46  40  79 CALM      29.83F
VALENTINE      SUNNY     40  35  83 SW3       29.84F
THEDFORD       SUNNY     40  38  92 W3        29.85F
AINSWORTH      SUNNY     42  39  90 W3        29.84F
O`NEILL        SUNNY     47  42  84 NW3       29.83F
ORD            SUNNY     45  40  82 NW5       29.83F
BROKEN BOW     SUNNY     44  39  82 NW5       29.84F
VALENTINE NWR    N/A     39  37  92 CALM        N/A
HALSEY           N/A     39  36  89 W3          N/A
BUTTE            N/A     44  41  90 NW3         N/A
CHAMBERS         N/A     54  45  72 CALM        N/A
EWING            N/A     47  44  90 N5          N/A
$$

...OBSERVATIONS IN SOUTHWEST NEBRASKA AND FAR NORTHEAST COLORADO...

CITY           SKY/WX    TMP DP  RH WIND       PRES   REMARKS
WRAY           FAIR      39  37  93 CALM      29.87F
IMPERIAL       SUNNY     43  37  79 CALM      29.87F
OGALLALA       SUNNY     39  37  92 CALM      29.86F
NORTH PLATTE   SUNNY     41  38  89 NW3       29.87F
MCCOOK         SUNNY     43  38  82 W9        29.89S
LEXINGTON      SUNNY     42  38  86 W8        29.86S
STAPLETON        N/A     40  38  91 CALM        N/A
GOTHENBURG       N/A     36  32  87 W6          N/A  WCI  31
CALLAWAY         N/A     37  35  92 NW8         N/A  WCI  31
$$

...OBSERVATIONS IN CENTRAL LINCOLN COUNTY AREA...

CITY           SKY/WX    TMP DP  RH WIND       PRES   REMARKS
N.P. AIRPORT   SUNNY     41  38  89 NW3       29.87F
N.P. DOWNTOWN    N/A     42  38  86 W3          N/A
N.P. SOUTHEAST   N/A     41  37  84 CALM        N/A
N.P. HILLCREST   N/A     39  37  91 CALM        N/A
$$

...SOME OBSERVATIONS FROM AROUND THE REGION...

CITY           SKY/WX    TMP DP  RH WIND       PRES   REMARKS
DENVER         MOSUNNY   46  37  71 S5        29.84F
LIMON          SUNNY     41  37  86 CALM      29.88F
ASPEN          CLOUDY    37  30  75 CALM      30.09F
LARAMIE        CLOUDY    49  34  56 SW9G17    29.91F
CASPER         SUNNY     53  38  56 SW17      29.78F
CHEYENNE       SUNNY     50  35  56 SW9       29.84F
SCOTTSBLUFF    SUNNY     41  36  82 SE13      29.79F
GRAND ISLAND   SUNNY     47  43  86 N10       29.84F
OMAHA          MOSUNNY   51  46  83 N13       29.77S
SIOUX FALLS    CLOUDY    47  46  97 NE6       29.82R
PIERRE         SUNNY     41  37  86 CALM      29.80F
RAPID CITY     SUNNY     45  38  76 S12       29.75F
BISMARCK       SUNNY     43  38  82 NE3       29.79F
KANSAS CITY    CLOUDY    51  48  89 NW12      29.71S
HILL CITY      SUNNY     45  41  86 W7        29.89S
WICHITA        MOSUNNY   51  44  77 NW14      29.83R
DODGE CITY     SUNNY     47  39  74 N7        29.89S
OKLAHOMA CITY  SUNNY     54  44  69 N10       29.85S
DALLAS         SUNNY     61  48  62 NW10      29.84R
AMARILLO       SUNNY     53  38  56 W5        29.94F
$$




USA.gov is the U.S. government's official web portal to all federal, state and local government web resources and services.